Year,Month,Day,Hour,Minute,Value (Times are PST for temperature in C)
2011,09,23,00,00,16.80
2011,09,23,00,01,16.80
2011,09,23,00,02,16.80
2011,09,23,00,03,16.80
2011,09,23,00,04,16.80
2011,09,23,00,05,16.80
2011,09,23,00,06,16.80
2011,09,23,00,07,16.80
2011,09,23,00,08,16.80
2011,09,23,00,09,16.70
2011,09,23,00,10,16.70
2011,09,23,00,11,16.70
2011,09,23,00,12,16.70
2011,09,23,00,13,16.70
2011,09,23,00,14,16.70
2011,09,23,00,15,16.80
2011,09,23,00,16,16.80
2011,09,23,00,17,16.80
2011,09,23,00,18,16.80
2011,09,23,00,19,16.80
2011,09,23,00,20,16.80
2011,09,23,00,21,16.70
2011,09,23,00,22,16.70
2011,09,23,00,23,16.70
2011,09,23,00,24,16.70
2011,09,23,00,25,16.70
2011,09,23,00,26,16.70
2011,09,23,00,27,16.70
2011,09,23,00,28,16.60
2011,09,23,00,29,16.60
2011,09,23,00,30,16.60
2011,09,23,00,31,16.60
2011,09,23,00,32,16.60
2011,09,23,00,33,16.60
2011,09,23,00,34,16.60
2011,09,23,00,35,16.60
2011,09,23,00,36,16.60
2011,09,23,00,37,16.60
2011,09,23,00,38,16.60
2011,09,23,00,39,16.60
2011,09,23,00,40,16.60
2011,09,23,00,41,16.50
2011,09,23,00,42,16.50
2011,09,23,00,43,16.50
2011,09,23,00,44,16.50
2011,09,23,00,45,16.50
2011,09,23,00,46,16.50
2011,09,23,00,47,16.50
2011,09,23,00,48,16.50
2011,09,23,00,49,16.50
2011,09,23,00,50,16.40
2011,09,23,00,51,16.50
2011,09,23,00,52,16.50
2011,09,23,00,53,16.40
2011,09,23,00,54,16.50
2011,09,23,00,55,16.50
2011,09,23,00,56,16.50
2011,09,23,00,57,16.50
2011,09,23,00,58,16.50
2011,09,23,00,59,16.50
2011,09,23,01,00,16.50
2011,09,23,01,01,16.50
2011,09,23,01,02,16.50
2011,09,23,01,03,16.50
2011,09,23,01,04,16.50
2011,09,23,01,05,16.50
2011,09,23,01,06,16.50
2011,09,23,01,07,16.50
2011,09,23,01,08,16.50
2011,09,23,01,09,16.50
2011,09,23,01,10,16.40
2011,09,23,01,11,16.40
2011,09,23,01,12,16.40
2011,09,23,01,13,16.30
2011,09,23,01,14,16.30
2011,09,23,01,15,16.30
2011,09,23,01,16,16.30
2011,09,23,01,17,16.30
2011,09,23,01,18,16.30
2011,09,23,01,19,16.20
2011,09,23,01,20,16.20
2011,09,23,01,21,16.20
2011,09,23,01,22,16.20
2011,09,23,01,23,16.30
2011,09,23,01,24,16.30
2011,09,23,01,25,16.30
2011,09,23,01,26,16.30
2011,09,23,01,27,16.30
2011,09,23,01,28,16.30
2011,09,23,01,29,16.30
2011,09,23,01,30,16.30
2011,09,23,01,31,16.30
2011,09,23,01,32,16.30
2011,09,23,01,33,16.30
2011,09,23,01,34,16.30
2011,09,23,01,35,16.30
2011,09,23,01,36,16.30
2011,09,23,01,37,16.30
2011,09,23,01,38,16.30
2011,09,23,01,39,16.30
2011,09,23,01,40,16.30
2011,09,23,01,41,16.30
2011,09,23,01,42,16.30
2011,09,23,01,43,16.30
2011,09,23,01,44,16.30
2011,09,23,01,45,16.30
2011,09,23,01,46,16.30
2011,09,23,01,47,16.30
2011,09,23,01,48,16.30
2011,09,23,01,49,16.30
2011,09,23,01,50,16.30
2011,09,23,01,51,16.30
2011,09,23,01,52,16.30
2011,09,23,01,53,16.30
2011,09,23,01,54,16.30
2011,09,23,01,55,16.30
2011,09,23,01,56,16.30
2011,09,23,01,57,16.30
2011,09,23,01,58,16.30
2011,09,23,01,59,16.30
2011,09,23,02,00,16.40
2011,09,23,02,01,16.40
2011,09,23,02,02,16.40
2011,09,23,02,03,16.40
2011,09,23,02,04,16.40
2011,09,23,02,05,16.50
2011,09,23,02,06,16.50
2011,09,23,02,07,16.60
2011,09,23,02,08,16.60
2011,09,23,02,09,16.70
2011,09,23,02,10,16.70
2011,09,23,02,11,16.70
2011,09,23,02,12,16.70
2011,09,23,02,13,16.70
2011,09,23,02,14,16.70
2011,09,23,02,15,16.70
2011,09,23,02,16,16.70
2011,09,23,02,17,16.70
2011,09,23,02,18,16.70
2011,09,23,02,19,16.70
2011,09,23,02,20,16.70
2011,09,23,02,21,16.70
2011,09,23,02,22,16.80
2011,09,23,02,23,16.80
2011,09,23,02,24,16.80
2011,09,23,02,25,16.80
2011,09,23,02,26,16.80
2011,09,23,02,27,16.80
2011,09,23,02,28,16.80
2011,09,23,02,29,16.80
2011,09,23,02,30,16.80
2011,09,23,02,31,16.80
2011,09,23,02,32,16.80
2011,09,23,02,33,16.80
2011,09,23,02,34,16.80
2011,09,23,02,35,16.80
2011,09,23,02,36,16.80
2011,09,23,02,37,16.80
2011,09,23,02,38,16.80
2011,09,23,02,39,16.80
2011,09,23,02,40,16.80
2011,09,23,02,41,16.80
2011,09,23,02,42,16.80
2011,09,23,02,43,16.80
2011,09,23,02,44,16.80
2011,09,23,02,45,16.80
2011,09,23,02,46,16.80
2011,09,23,02,47,16.80
2011,09,23,02,48,16.80
2011,09,23,02,49,16.80
2011,09,23,02,50,16.80
2011,09,23,02,51,16.80
2011,09,23,02,52,16.80
2011,09,23,02,53,16.80
2011,09,23,02,54,16.80
2011,09,23,02,55,16.80
2011,09,23,02,56,16.90
2011,09,23,02,57,17.00
2011,09,23,02,58,17.00
2011,09,23,02,59,17.10
2011,09,23,03,00,17.10
2011,09,23,03,01,17.20
2011,09,23,03,02,17.20
2011,09,23,03,03,17.20
2011,09,23,03,04,17.20
2011,09,23,03,05,17.20
2011,09,23,03,06,17.30
2011,09,23,03,07,17.30
2011,09,23,03,08,17.20
2011,09,23,03,09,17.20
2011,09,23,03,10,17.20
2011,09,23,03,11,17.20
2011,09,23,03,12,17.30
2011,09,23,03,13,17.30
2011,09,23,03,14,17.30
2011,09,23,03,15,17.30
2011,09,23,03,16,17.30
2011,09,23,03,17,17.30
2011,09,23,03,18,17.30
2011,09,23,03,19,17.30
2011,09,23,03,20,17.30
2011,09,23,03,21,17.20
2011,09,23,03,22,17.20
2011,09,23,03,23,17.20
2011,09,23,03,24,17.20
2011,09,23,03,25,17.20
2011,09,23,03,26,17.20
2011,09,23,03,27,17.30
2011,09,23,03,28,17.30
2011,09,23,03,29,17.30
2011,09,23,03,30,17.30
2011,09,23,03,31,17.30
2011,09,23,03,32,17.40
2011,09,23,03,33,17.40
2011,09,23,03,34,17.50
2011,09,23,03,35,17.50
2011,09,23,03,36,17.60
2011,09,23,03,37,17.60
2011,09,23,03,38,17.60
2011,09,23,03,39,17.60
2011,09,23,03,40,17.60
2011,09,23,03,41,17.60
2011,09,23,03,42,17.60
2011,09,23,03,43,17.60
2011,09,23,03,44,17.50
2011,09,23,03,45,17.50
2011,09,23,03,46,17.50
2011,09,23,03,47,17.40
2011,09,23,03,48,17.40
2011,09,23,03,49,17.40
2011,09,23,03,50,17.40
2011,09,23,03,51,17.40
2011,09,23,03,52,17.40
2011,09,23,03,53,17.30
2011,09,23,03,54,17.30
2011,09,23,03,55,17.30
2011,09,23,03,56,17.30
2011,09,23,03,57,17.30
2011,09,23,03,58,17.30
2011,09,23,03,59,17.30
2011,09,23,04,00,17.30
2011,09,23,04,01,17.30
2011,09,23,04,02,17.20
2011,09,23,04,03,17.20
2011,09,23,04,04,17.20
2011,09,23,04,05,17.20
2011,09,23,04,06,17.20
2011,09,23,04,07,17.20
2011,09,23,04,08,17.20
2011,09,23,04,09,17.20
2011,09,23,04,10,17.20
2011,09,23,04,11,17.20
2011,09,23,04,12,17.20
2011,09,23,04,13,17.20
2011,09,23,04,14,17.20
2011,09,23,04,15,17.10
2011,09,23,04,16,17.10
2011,09,23,04,17,17.10
2011,09,23,04,18,17.10
2011,09,23,04,19,17.00
2011,09,23,04,20,17.00
2011,09,23,04,21,17.00
2011,09,23,04,22,16.90
2011,09,23,04,23,16.90
2011,09,23,04,24,16.90
2011,09,23,04,25,16.90
2011,09,23,04,26,16.90
2011,09,23,04,27,16.90
2011,09,23,04,28,17.00
2011,09,23,04,29,17.00
2011,09,23,04,30,17.00
2011,09,23,04,31,17.00
2011,09,23,04,32,17.10
2011,09,23,04,33,17.00
2011,09,23,04,34,17.00
2011,09,23,04,35,17.10
2011,09,23,04,36,17.10
2011,09,23,04,37,17.10
2011,09,23,04,38,17.10
2011,09,23,04,39,17.10
2011,09,23,04,40,17.00
2011,09,23,04,41,17.00
2011,09,23,04,42,17.00
2011,09,23,04,43,17.00
2011,09,23,04,44,16.90
2011,09,23,04,45,16.90
2011,09,23,04,46,16.90
2011,09,23,04,47,16.90
2011,09,23,04,48,16.90
2011,09,23,04,49,16.80
2011,09,23,04,50,16.80
2011,09,23,04,51,16.80
2011,09,23,04,52,16.80
2011,09,23,04,53,16.80
2011,09,23,04,54,16.80
2011,09,23,04,55,16.80
2011,09,23,04,56,16.70
2011,09,23,04,57,16.70
2011,09,23,04,58,16.70
2011,09,23,04,59,16.70
2011,09,23,05,00,16.70
2011,09,23,05,01,16.70
2011,09,23,05,02,16.70
2011,09,23,05,03,16.60
2011,09,23,05,04,16.60
2011,09,23,05,05,16.60
2011,09,23,05,06,16.60
2011,09,23,05,07,16.60
2011,09,23,05,08,16.60
2011,09,23,05,09,16.60
2011,09,23,05,10,16.50
2011,09,23,05,11,16.50
2011,09,23,05,12,16.60
2011,09,23,05,13,16.50
2011,09,23,05,14,16.50
2011,09,23,05,15,16.50
2011,09,23,05,16,16.50
2011,09,23,05,17,16.50
2011,09,23,05,18,16.40
2011,09,23,05,19,16.40
2011,09,23,05,20,16.40
2011,09,23,05,21,16.40
2011,09,23,05,22,16.30
2011,09,23,05,23,16.30
2011,09,23,05,24,16.30
2011,09,23,05,25,16.30
2011,09,23,05,26,16.30
2011,09,23,05,27,16.30
2011,09,23,05,28,16.30
2011,09,23,05,29,16.30
2011,09,23,05,30,16.30
2011,09,23,05,31,16.20
2011,09,23,05,32,16.20
2011,09,23,05,33,16.20
2011,09,23,05,34,16.20
2011,09,23,05,35,16.20
2011,09,23,05,36,16.20
2011,09,23,05,37,16.20
2011,09,23,05,38,16.20
2011,09,23,05,39,16.20
2011,09,23,05,40,16.20
2011,09,23,05,41,16.20
2011,09,23,05,42,16.10
2011,09,23,05,43,16.10
2011,09,23,05,44,16.10
2011,09,23,05,45,16.10
2011,09,23,05,46,16.20
2011,09,23,05,47,16.10
2011,09,23,05,48,16.20
2011,09,23,05,49,16.10
2011,09,23,05,50,16.20
2011,09,23,05,51,16.20
2011,09,23,05,52,16.10
2011,09,23,05,53,16.10
2011,09,23,05,54,16.10
2011,09,23,05,55,16.10
2011,09,23,05,56,16.10
2011,09,23,05,57,16.10
2011,09,23,05,58,16.10
2011,09,23,05,59,16.10
2011,09,23,06,00,16.10
2011,09,23,06,01,16.10
2011,09,23,06,02,16.10
2011,09,23,06,03,16.10
2011,09,23,06,04,16.10
2011,09,23,06,05,16.20
2011,09,23,06,06,16.20
2011,09,23,06,07,16.10
2011,09,23,06,08,16.10
2011,09,23,06,09,16.10
2011,09,23,06,10,16.10
2011,09,23,06,11,16.20
2011,09,23,06,12,16.20
2011,09,23,06,13,16.20
2011,09,23,06,14,16.20
2011,09,23,06,15,16.10
2011,09,23,06,16,16.10
2011,09,23,06,17,16.10
2011,09,23,06,18,16.10
2011,09,23,06,19,16.10
2011,09,23,06,20,16.10
2011,09,23,06,21,16.00
2011,09,23,06,22,16.00
2011,09,23,06,23,16.00
2011,09,23,06,24,15.90
2011,09,23,06,25,15.90
2011,09,23,06,26,15.90
2011,09,23,06,27,15.90
2011,09,23,06,28,15.90
2011,09,23,06,29,15.90
2011,09,23,06,30,15.90
2011,09,23,06,31,15.90
2011,09,23,06,32,15.90
2011,09,23,06,33,15.90
2011,09,23,06,34,15.90
2011,09,23,06,35,15.90
2011,09,23,06,36,15.80
2011,09,23,06,37,15.80
2011,09,23,06,38,15.80
2011,09,23,06,39,15.80
2011,09,23,06,40,15.80
2011,09,23,06,41,15.80
2011,09,23,06,42,15.80
2011,09,23,06,43,15.80
2011,09,23,06,44,15.90
2011,09,23,06,45,15.90
2011,09,23,06,46,15.90
2011,09,23,06,47,15.90
2011,09,23,06,48,15.90
2011,09,23,06,49,15.90
2011,09,23,06,50,15.90
2011,09,23,06,51,15.90
2011,09,23,06,52,15.90
2011,09,23,06,53,15.90
2011,09,23,06,54,15.90
2011,09,23,06,55,15.90
2011,09,23,06,56,15.90
2011,09,23,06,57,15.90
2011,09,23,06,58,15.90
2011,09,23,06,59,15.90
2011,09,23,07,00,15.90
2011,09,23,07,01,15.90
2011,09,23,07,02,15.90
2011,09,23,07,03,15.90
2011,09,23,07,04,15.90
2011,09,23,07,05,15.90
2011,09,23,07,06,16.00
2011,09,23,07,07,16.00
2011,09,23,07,08,16.00
2011,09,23,07,09,16.00
2011,09,23,07,10,16.00
2011,09,23,07,11,16.00
2011,09,23,07,12,16.10
2011,09,23,07,13,16.10
2011,09,23,07,14,16.10
2011,09,23,07,15,16.10
2011,09,23,07,16,16.10
2011,09,23,07,17,16.10
2011,09,23,07,18,16.10
2011,09,23,07,19,16.10
2011,09,23,07,20,16.20
2011,09,23,07,21,16.20
2011,09,23,07,22,16.20
2011,09,23,07,23,16.20
2011,09,23,07,24,16.20
2011,09,23,07,25,16.20
2011,09,23,07,26,16.20
2011,09,23,07,27,16.20
2011,09,23,07,28,16.20
2011,09,23,07,29,16.20
2011,09,23,07,30,16.20
2011,09,23,07,31,16.30
2011,09,23,07,32,16.30
2011,09,23,07,33,16.30
2011,09,23,07,34,16.30
2011,09,23,07,35,16.30
2011,09,23,07,36,16.30
2011,09,23,07,37,16.30
2011,09,23,07,38,16.30
2011,09,23,07,39,16.30
2011,09,23,07,40,16.30
2011,09,23,07,41,16.30
2011,09,23,07,42,16.30
2011,09,23,07,43,16.30
2011,09,23,07,44,16.40
2011,09,23,07,45,16.40
2011,09,23,07,46,16.40
2011,09,23,07,47,16.40
2011,09,23,07,48,16.40
2011,09,23,07,49,16.40
2011,09,23,07,50,16.40
2011,09,23,07,51,16.50
2011,09,23,07,52,16.50
2011,09,23,07,53,16.50
2011,09,23,07,54,16.60
2011,09,23,07,55,16.60
2011,09,23,07,56,16.60
2011,09,23,07,57,16.60
2011,09,23,07,58,16.60
2011,09,23,07,59,16.60
2011,09,23,08,00,16.60
2011,09,23,08,01,16.60
2011,09,23,08,02,16.60
2011,09,23,08,03,16.60
2011,09,23,08,04,16.60
2011,09,23,08,05,16.60
2011,09,23,08,06,16.70
2011,09,23,08,07,16.70
2011,09,23,08,08,16.70
2011,09,23,08,09,16.70
2011,09,23,08,10,16.70
2011,09,23,08,11,16.70
2011,09,23,08,12,16.80
2011,09,23,08,13,16.80
2011,09,23,08,14,16.80
2011,09,23,08,15,16.90
2011,09,23,08,16,16.90
2011,09,23,08,17,17.00
2011,09,23,08,18,17.00
2011,09,23,08,19,17.10
2011,09,23,08,20,17.10
2011,09,23,08,21,17.20
2011,09,23,08,22,17.20
2011,09,23,08,23,17.30
2011,09,23,08,24,17.30
2011,09,23,08,25,17.30
2011,09,23,08,26,17.30
2011,09,23,08,27,17.40
2011,09,23,08,28,17.40
2011,09,23,08,29,17.40
2011,09,23,08,30,17.40
2011,09,23,08,31,17.40
2011,09,23,08,32,17.50
2011,09,23,08,33,17.50
2011,09,23,08,34,17.60
2011,09,23,08,35,17.70
2011,09,23,08,36,17.70
2011,09,23,08,37,17.80
2011,09,23,08,38,17.80
2011,09,23,08,39,17.90
2011,09,23,08,40,17.90
2011,09,23,08,41,17.90
2011,09,23,08,42,17.90
2011,09,23,08,43,17.90
2011,09,23,08,44,17.90
2011,09,23,08,45,18.00
2011,09,23,08,46,18.00
2011,09,23,08,47,18.00
2011,09,23,08,48,18.10
2011,09,23,08,49,18.10
2011,09,23,08,50,18.10
2011,09,23,08,51,18.10
2011,09,23,08,52,18.10
2011,09,23,08,53,18.10
2011,09,23,08,54,18.10
2011,09,23,08,55,18.10
2011,09,23,08,56,18.10
2011,09,23,08,57,18.20
2011,09,23,08,58,18.20
2011,09,23,08,59,18.20
2011,09,23,09,00,18.20
2011,09,23,09,01,18.20
2011,09,23,09,02,18.20
2011,09,23,09,03,18.20
2011,09,23,09,04,18.20
2011,09,23,09,05,18.30
2011,09,23,09,06,18.30
2011,09,23,09,07,18.30
2011,09,23,09,08,18.30
2011,09,23,09,09,18.30
2011,09,23,09,10,18.30
2011,09,23,09,11,18.30
2011,09,23,09,12,18.30
2011,09,23,09,13,18.30
2011,09,23,09,14,18.30
2011,09,23,09,15,18.30
2011,09,23,09,16,18.30
2011,09,23,09,17,18.30
2011,09,23,09,18,18.30
2011,09,23,09,19,18.30
2011,09,23,09,20,18.30
2011,09,23,09,21,18.30
2011,09,23,09,22,18.30
2011,09,23,09,23,18.30
2011,09,23,09,24,18.30
2011,09,23,09,25,18.30
2011,09,23,09,26,18.30
2011,09,23,09,27,18.30
2011,09,23,09,28,18.30
2011,09,23,09,29,18.30
2011,09,23,09,30,18.30
2011,09,23,09,31,18.30
2011,09,23,09,32,18.30
2011,09,23,09,33,18.30
2011,09,23,09,34,18.30
2011,09,23,09,35,18.30
2011,09,23,09,36,18.30
2011,09,23,09,37,18.30
2011,09,23,09,38,18.30
2011,09,23,09,39,18.30
2011,09,23,09,40,18.30
2011,09,23,09,41,18.30
2011,09,23,09,42,18.30
2011,09,23,09,43,18.30
2011,09,23,09,44,18.20
2011,09,23,09,45,18.20
2011,09,23,09,46,18.20
2011,09,23,09,47,18.20
2011,09,23,09,48,18.20
2011,09,23,09,49,18.20
2011,09,23,09,50,18.20
2011,09,23,09,51,18.20
2011,09,23,09,52,18.20
2011,09,23,09,53,18.20
2011,09,23,09,54,18.20
2011,09,23,09,55,18.20
2011,09,23,09,56,18.20
2011,09,23,09,57,18.20
2011,09,23,09,58,18.20
2011,09,23,09,59,18.20
2011,09,23,10,00,18.20
2011,09,23,10,01,18.20
2011,09,23,10,02,18.20
2011,09,23,10,03,18.20
2011,09,23,10,04,18.20
2011,09,23,10,05,18.20
2011,09,23,10,06,18.20
2011,09,23,10,07,18.20
2011,09,23,10,08,18.20
2011,09,23,10,09,18.20
2011,09,23,10,10,18.20
2011,09,23,10,11,18.20
2011,09,23,10,12,18.20
2011,09,23,10,13,18.20
2011,09,23,10,14,18.20
2011,09,23,10,15,18.20
2011,09,23,10,16,18.30
2011,09,23,10,17,18.30
2011,09,23,10,18,18.30
2011,09,23,10,19,18.30
2011,09,23,10,20,18.40
2011,09,23,10,21,18.40
2011,09,23,10,22,18.40
2011,09,23,10,23,18.40
2011,09,23,10,24,18.40
2011,09,23,10,25,18.40
2011,09,23,10,26,18.40
2011,09,23,10,27,18.40
2011,09,23,10,28,18.50
2011,09,23,10,29,18.50
2011,09,23,10,30,18.50
2011,09,23,10,31,18.50
2011,09,23,10,32,18.50
2011,09,23,10,33,18.60
2011,09,23,10,34,18.60
2011,09,23,10,35,18.60
2011,09,23,10,36,18.70
2011,09,23,10,37,18.70
2011,09,23,10,38,18.70
2011,09,23,10,39,18.70
2011,09,23,10,40,18.70
2011,09,23,10,41,18.70
2011,09,23,10,42,18.70
2011,09,23,10,43,18.70
2011,09,23,10,44,18.70
2011,09,23,10,45,18.70
2011,09,23,10,46,18.70
2011,09,23,10,47,18.70
2011,09,23,10,48,18.70
2011,09,23,10,49,18.70
2011,09,23,10,50,18.70
2011,09,23,10,51,18.70
2011,09,23,10,52,18.70
2011,09,23,10,53,18.70
2011,09,23,10,54,18.70
2011,09,23,10,55,18.70
2011,09,23,10,56,18.70
2011,09,23,10,57,18.70
2011,09,23,10,58,18.70
2011,09,23,10,59,18.70
2011,09,23,11,00,18.70
2011,09,23,11,01,18.70
2011,09,23,11,02,18.70
2011,09,23,11,03,18.70
2011,09,23,11,04,18.70
2011,09,23,11,05,18.70
2011,09,23,11,06,18.70
2011,09,23,11,07,18.80
2011,09,23,11,08,18.80
2011,09,23,11,09,18.80
2011,09,23,11,10,18.80
2011,09,23,11,11,18.80
2011,09,23,11,12,18.90
2011,09,23,11,13,18.90
2011,09,23,11,14,18.90
2011,09,23,11,15,18.90
2011,09,23,11,16,18.90
2011,09,23,11,17,18.90
2011,09,23,11,18,18.90
2011,09,23,11,19,18.90
2011,09,23,11,20,18.90
2011,09,23,11,21,18.90
2011,09,23,11,22,18.90
2011,09,23,11,23,18.90
2011,09,23,11,24,18.90
2011,09,23,11,25,18.90
2011,09,23,11,26,18.90
2011,09,23,11,27,18.90
2011,09,23,11,28,18.90
2011,09,23,11,29,18.90
2011,09,23,11,30,18.90
2011,09,23,11,31,18.90
2011,09,23,11,32,18.90
2011,09,23,11,33,18.90
2011,09,23,11,34,18.90
2011,09,23,11,35,18.90
2011,09,23,11,36,18.90
2011,09,23,11,37,19.00
2011,09,23,11,38,19.00
2011,09,23,11,39,19.00
2011,09,23,11,40,19.10
2011,09,23,11,41,19.10
2011,09,23,11,42,19.10
2011,09,23,11,43,19.10
2011,09,23,11,44,19.10
2011,09,23,11,45,19.20
2011,09,23,11,46,19.20
2011,09,23,11,47,19.10
2011,09,23,11,48,19.10
2011,09,23,11,49,19.10
2011,09,23,11,50,19.20
2011,09,23,11,51,19.20
2011,09,23,11,52,19.20
2011,09,23,11,53,19.20
2011,09,23,11,54,19.20
2011,09,23,11,55,19.20
2011,09,23,11,56,19.20
2011,09,23,11,57,19.20
2011,09,23,11,58,19.20
2011,09,23,11,59,19.20
2011,09,23,12,00,19.20
2011,09,23,12,01,19.20
2011,09,23,12,02,19.20
2011,09,23,12,03,19.20
2011,09,23,12,04,19.20
2011,09,23,12,05,19.20
2011,09,23,12,06,19.20
2011,09,23,12,07,19.20
2011,09,23,12,08,19.20
2011,09,23,12,09,19.20
2011,09,23,12,10,19.30
2011,09,23,12,11,19.40
2011,09,23,12,12,19.40
2011,09,23,12,13,19.50
2011,09,23,12,14,19.60
2011,09,23,12,15,19.60
2011,09,23,12,16,19.70
2011,09,23,12,17,19.80
2011,09,23,12,18,19.90
2011,09,23,12,19,20.00
2011,09,23,12,20,20.20
2011,09,23,12,21,20.30
2011,09,23,12,22,20.40
2011,09,23,12,23,20.50
2011,09,23,12,24,20.60
2011,09,23,12,25,20.70
2011,09,23,12,26,20.70
2011,09,23,12,27,20.80
2011,09,23,12,28,20.90
2011,09,23,12,29,20.90
2011,09,23,12,30,21.00
2011,09,23,12,31,21.00
2011,09,23,12,32,21.10
2011,09,23,12,33,21.10
2011,09,23,12,34,21.20
2011,09,23,12,35,21.30
2011,09,23,12,36,21.30
2011,09,23,12,37,21.40
2011,09,23,12,38,21.50
2011,09,23,12,39,21.50
2011,09,23,12,40,21.50
2011,09,23,12,41,21.40
2011,09,23,12,42,21.40
2011,09,23,12,43,21.30
2011,09,23,12,44,21.40
2011,09,23,12,45,21.40
2011,09,23,12,46,21.40
2011,09,23,12,47,21.40
2011,09,23,12,48,21.40
2011,09,23,12,49,21.50
2011,09,23,12,50,21.50
2011,09,23,12,51,21.50
2011,09,23,12,52,21.50
2011,09,23,12,53,21.40
2011,09,23,12,54,21.40
2011,09,23,12,55,21.30
2011,09,23,12,56,21.30
2011,09,23,12,57,21.30
2011,09,23,12,58,21.30
2011,09,23,12,59,21.30
2011,09,23,13,00,21.20
2011,09,23,13,01,21.20
2011,09,23,13,02,21.20
2011,09,23,13,03,21.20
2011,09,23,13,04,21.20
2011,09,23,13,05,21.10
2011,09,23,13,06,21.10
2011,09,23,13,07,21.10
2011,09,23,13,08,21.10
2011,09,23,13,09,21.10
2011,09,23,13,10,21.10
2011,09,23,13,11,21.10
2011,09,23,13,12,21.10
2011,09,23,13,13,21.10
2011,09,23,13,14,21.00
2011,09,23,13,15,21.10
2011,09,23,13,16,21.10
2011,09,23,13,17,21.10
2011,09,23,13,18,21.10
2011,09,23,13,19,21.10
2011,09,23,13,20,21.10
2011,09,23,13,21,21.10
2011,09,23,13,22,21.10
2011,09,23,13,23,21.10
2011,09,23,13,24,21.20
2011,09,23,13,25,21.20
2011,09,23,13,26,21.20
2011,09,23,13,27,21.20
2011,09,23,13,28,21.20
2011,09,23,13,29,21.20
2011,09,23,13,30,21.20
2011,09,23,13,31,21.20
2011,09,23,13,32,21.20
2011,09,23,13,33,21.20
2011,09,23,13,34,21.10
2011,09,23,13,35,21.20
2011,09,23,13,36,21.20
2011,09,23,13,37,21.20
2011,09,23,13,38,21.20
2011,09,23,13,39,21.20
2011,09,23,13,40,21.20
2011,09,23,13,41,21.20
2011,09,23,13,42,21.20
2011,09,23,13,43,21.20
2011,09,23,13,44,21.20
2011,09,23,13,45,21.30
2011,09,23,13,46,21.30
2011,09,23,13,47,21.20
2011,09,23,13,48,21.20
2011,09,23,13,49,21.20
2011,09,23,13,50,21.20
2011,09,23,13,51,21.20
2011,09,23,13,52,21.20
2011,09,23,13,53,21.20
2011,09,23,13,54,21.30
2011,09,23,13,55,21.30
2011,09,23,13,56,21.30
2011,09,23,13,57,21.30
2011,09,23,13,58,21.30
2011,09,23,13,59,21.40
2011,09,23,14,00,21.40
2011,09,23,14,01,21.50
2011,09,23,14,02,21.50
2011,09,23,14,03,21.60
2011,09,23,14,04,21.60
2011,09,23,14,05,21.60
2011,09,23,14,06,21.50
2011,09,23,14,07,21.50
2011,09,23,14,08,21.40
2011,09,23,14,09,21.40
2011,09,23,14,10,21.40
2011,09,23,14,11,21.30
2011,09,23,14,12,21.20
2011,09,23,14,13,21.20
2011,09,23,14,14,21.20
2011,09,23,14,15,21.20
2011,09,23,14,16,21.10
2011,09,23,14,17,21.10
2011,09,23,14,18,21.00
2011,09,23,14,19,21.00
2011,09,23,14,20,21.00
2011,09,23,14,21,21.00
2011,09,23,14,22,20.90
2011,09,23,14,23,20.90
2011,09,23,14,24,20.90
2011,09,23,14,25,20.80
2011,09,23,14,26,20.80
2011,09,23,14,27,20.80
2011,09,23,14,28,20.80
2011,09,23,14,29,20.80
2011,09,23,14,30,20.80
2011,09,23,14,31,20.80
2011,09,23,14,32,20.80
2011,09,23,14,33,20.90
2011,09,23,14,34,20.90
2011,09,23,14,35,20.90
2011,09,23,14,36,20.90
2011,09,23,14,37,21.00
2011,09,23,14,38,21.00
2011,09,23,14,39,21.10
2011,09,23,14,40,21.10
2011,09,23,14,41,21.10
2011,09,23,14,42,21.10
2011,09,23,14,43,21.20
2011,09,23,14,44,21.20
2011,09,23,14,45,21.20
2011,09,23,14,46,21.20
2011,09,23,14,47,21.20
2011,09,23,14,48,21.30
2011,09,23,14,49,21.30
2011,09,23,14,50,21.30
2011,09,23,14,51,21.30
2011,09,23,14,52,21.40
2011,09,23,14,53,21.40
2011,09,23,14,54,21.50
2011,09,23,14,55,21.50
2011,09,23,14,56,21.50
2011,09,23,14,57,21.60
2011,09,23,14,58,21.60
2011,09,23,14,59,21.60
2011,09,23,15,00,21.60
2011,09,23,15,01,21.60
2011,09,23,15,02,21.60
2011,09,23,15,03,21.70
2011,09,23,15,04,21.70
2011,09,23,15,05,21.70
2011,09,23,15,06,21.70
2011,09,23,15,07,21.80
2011,09,23,15,08,21.80
2011,09,23,15,09,21.80
2011,09,23,15,10,21.90
2011,09,23,15,11,21.90
2011,09,23,15,12,21.90
2011,09,23,15,13,22.00
2011,09,23,15,14,22.00
2011,09,23,15,15,22.10
2011,09,23,15,16,22.10
2011,09,23,15,17,22.10
2011,09,23,15,18,22.10
2011,09,23,15,19,22.10
2011,09,23,15,20,22.10
2011,09,23,15,21,22.10
2011,09,23,15,22,22.10
2011,09,23,15,23,22.10
2011,09,23,15,24,22.10
2011,09,23,15,25,22.00
2011,09,23,15,26,22.00
2011,09,23,15,27,22.00
2011,09,23,15,28,22.00
2011,09,23,15,29,22.00
2011,09,23,15,30,21.90
2011,09,23,15,31,21.90
2011,09,23,15,32,21.80
2011,09,23,15,33,21.80
2011,09,23,15,34,21.80
2011,09,23,15,35,21.80
2011,09,23,15,36,21.80
2011,09,23,15,37,21.80
2011,09,23,15,38,21.80
2011,09,23,15,39,21.80
2011,09,23,15,40,21.70
2011,09,23,15,41,21.70
2011,09,23,15,42,21.60
2011,09,23,15,43,21.50
2011,09,23,15,44,21.50
2011,09,23,15,45,21.40
2011,09,23,15,46,21.40
2011,09,23,15,47,21.40
2011,09,23,15,48,21.40
2011,09,23,15,49,21.30
2011,09,23,15,50,21.30
2011,09,23,15,51,21.30
2011,09,23,15,52,21.30
2011,09,23,15,53,21.20
2011,09,23,15,54,21.20
2011,09,23,15,55,21.20
2011,09,23,15,56,21.20
2011,09,23,15,57,21.20
2011,09,23,15,58,21.20
2011,09,23,15,59,21.20
2011,09,23,16,00,21.20
2011,09,23,16,01,21.10
2011,09,23,16,02,21.10
2011,09,23,16,03,21.10
2011,09,23,16,04,21.10
2011,09,23,16,05,21.10
2011,09,23,16,06,21.10
2011,09,23,16,07,21.10
2011,09,23,16,08,21.10
2011,09,23,16,09,21.10
2011,09,23,16,10,21.10
2011,09,23,16,11,21.10
2011,09,23,16,12,21.10
2011,09,23,16,13,21.10
2011,09,23,16,14,21.20
2011,09,23,16,15,21.20
2011,09,23,16,16,21.20
2011,09,23,16,17,21.20
2011,09,23,16,18,21.20
2011,09,23,16,19,21.30
2011,09,23,16,20,21.30
2011,09,23,16,21,21.30
2011,09,23,16,22,21.30
2011,09,23,16,23,21.30
2011,09,23,16,24,21.30
2011,09,23,16,25,21.30
2011,09,23,16,26,21.40
2011,09,23,16,27,21.40
2011,09,23,16,28,21.40
2011,09,23,16,29,21.40
2011,09,23,16,30,21.50
2011,09,23,16,31,21.50
2011,09,23,16,32,21.60
2011,09,23,16,33,21.60
2011,09,23,16,34,21.70
2011,09,23,16,35,21.70
2011,09,23,16,36,21.70
2011,09,23,16,37,21.80
2011,09,23,16,38,21.80
2011,09,23,16,39,21.80
2011,09,23,16,40,21.90
2011,09,23,16,41,21.90
2011,09,23,16,42,21.90
2011,09,23,16,43,22.00
2011,09,23,16,44,22.00
2011,09,23,16,45,22.00
2011,09,23,16,46,22.10
2011,09,23,16,47,22.10
2011,09,23,16,48,22.10
2011,09,23,16,49,22.10
2011,09,23,16,50,22.10
2011,09,23,16,51,22.10
2011,09,23,16,52,22.10
2011,09,23,16,53,22.00
2011,09,23,16,54,22.00
2011,09,23,16,55,22.10
2011,09,23,16,56,22.10
2011,09,23,16,57,22.10
2011,09,23,16,58,22.10
2011,09,23,16,59,22.10
2011,09,23,17,00,22.10
2011,09,23,17,01,22.10
2011,09,23,17,02,22.10
2011,09,23,17,03,22.10
2011,09,23,17,04,22.10
2011,09,23,17,05,22.10
2011,09,23,17,06,22.00
2011,09,23,17,07,22.00
2011,09,23,17,08,21.90
2011,09,23,17,09,21.80
2011,09,23,17,10,21.80
2011,09,23,17,11,21.80
2011,09,23,17,12,21.80
2011,09,23,17,13,21.70
2011,09,23,17,14,21.70
2011,09,23,17,15,21.70
2011,09,23,17,16,21.70
2011,09,23,17,17,21.70
2011,09,23,17,18,21.70
2011,09,23,17,19,21.70